Weather History for Franklin, PA

Change the Weather History Date:

Thursday, April 18, 2013

  Actual Average Record
Temperature  
Mean Temperature 70 °F -  
Max Temperature 82 °F 60 °F 93 °F (2002)
Min Temperature 57 °F 35 °F 18 °F (1928)
Cooling Degree Days 4    
Growing Degree Days 20 (Base 50)    
Moisture  
Dew Point 54 °F    
Average Humidity 61    
Maximum Humidity 82    
Minimum Humidity 42    
Precipitation  
Precipitation 0.00 in - - ()
Sea Level Pressure  
Sea Level Pressure 29.94 in    
Wind  
Wind Speed 14 mph (SSE)    
Max Wind Speed 25 mph    
Max Gust Speed 33 mph    
Visibility 10 miles    
Events      
Averages and records for this station are not official NWS values.
T = Trace of Precipitation, MM = Missing Value Source: NWS Daily Summary

Daily Weather History Graph

Daily Weather History Graph

Search for Another Location

Airport:

Trip Planner

Search our weather history database for the weather conditions in past years. The results will help you decide how hot, cold, wet, or windy it might be!

Date:

Astronomy

Apr. 18, 2013 Rise Set
Actual Time 6:34 AM EDT 8:03 PM EDT
Civil Twilight 6:05 AM EDT 8:32 PM EDT
Nautical Twilight 5:31 AM EDT 9:07 PM EDT
Astronomical Twilight 4:54 AM EDT 9:44 PM EDT
Moon 12:44 PM EDT (4/18) 2:17 AM EDT (4/18)
Length of Visible Light 14h 26m
Length of Day
13h 28m
First Quarter, 51% of the Moon is Illuminated
Apr 18
First Quarter
Apr 25
Full
May 2
Last Quarter
May 9
New
May 18
First Quarter

Hourly Weather History & Observations

Time (EDT) Temp. Heat Index Dew Point Humidity Pressure Visibility Wind Dir Wind Speed Gust Speed Precip Events Conditions
12:15 AM 60.8 °F - 48.2 °F 63% 30.13 in 10.0 mi SSE 11.5 mph - N/A   Clear
12:35 AM 60.8 °F - 48.2 °F 63% 30.13 in 10.0 mi SSE 10.4 mph - N/A   Clear
12:55 AM 59.0 °F - 48.2 °F 67% 30.12 in 10.0 mi SE 13.8 mph - N/A   Partly Cloudy
1:15 AM 59.0 °F - 50.0 °F 72% 30.10 in 10.0 mi SE 13.8 mph 19.6 mph N/A   Scattered Clouds
1:35 AM 60.8 °F - 50.0 °F 68% 30.10 in 10.0 mi SE 13.8 mph 20.7 mph N/A   Mostly Cloudy
1:55 AM 60.8 °F - 50.0 °F 68% 30.09 in 10.0 mi SE 15.0 mph 24.2 mph N/A   Overcast
2:15 AM 60.8 °F - 50.0 °F 68% 30.09 in 10.0 mi SE 11.5 mph - N/A   Scattered Clouds
2:35 AM 59.0 °F - 50.0 °F 72% 30.07 in 10.0 mi SE 15.0 mph - N/A   Scattered Clouds
2:55 AM 59.0 °F - 50.0 °F 72% 30.06 in 10.0 mi SE 12.7 mph 18.4 mph N/A   Clear
3:15 AM 59.0 °F - 51.8 °F 77% 30.04 in 10.0 mi SSE 11.5 mph 19.6 mph N/A   Clear
3:35 AM 59.0 °F - 51.8 °F 77% 30.04 in 10.0 mi SE 11.5 mph 19.6 mph N/A   Clear
3:55 AM 59.0 °F - 51.8 °F 77% 30.03 in 10.0 mi SE 12.7 mph 17.3 mph N/A   Clear
4:15 AM 59.0 °F - 51.8 °F 77% 30.03 in 10.0 mi SSE 12.7 mph 18.4 mph N/A   Clear
4:35 AM 59.0 °F - 51.8 °F 77% 30.03 in 10.0 mi SSE 11.5 mph 19.6 mph N/A   Clear
4:55 AM 57.2 °F - 51.8 °F 82% 30.03 in 10.0 mi SE 11.5 mph - N/A   Clear
5:15 AM 57.2 °F - 51.8 °F 82% 30.02 in 10.0 mi SE 10.4 mph 17.3 mph N/A   Clear
5:35 AM 57.2 °F - 51.8 °F 82% 30.02 in 10.0 mi SE 9.2 mph 16.1 mph N/A   Clear
5:55 AM 57.2 °F - 51.8 °F 82% 30.02 in 10.0 mi SE 10.4 mph - N/A   Clear
6:15 AM 57.2 °F - 51.8 °F 82% 30.02 in 10.0 mi SE 8.1 mph 17.3 mph N/A   Clear
6:35 AM 57.2 °F - 51.8 °F 82% 30.02 in 10.0 mi SE 12.7 mph - N/A   Clear
6:55 AM 57.2 °F - 51.8 °F 82% 30.02 in 10.0 mi SSE 12.7 mph - N/A   Clear
7:15 AM 57.2 °F - 51.8 °F 82% 30.03 in 10.0 mi SSE 10.4 mph 16.1 mph N/A   Clear
7:35 AM 59.0 °F - 51.8 °F 77% 30.03 in 10.0 mi SSE 12.7 mph 17.3 mph N/A   Clear
7:55 AM 59.0 °F - 53.6 °F 82% 30.03 in 10.0 mi SSE 12.7 mph - N/A   Clear
8:15 AM 60.8 °F - 53.6 °F 77% 30.03 in 10.0 mi SSE 16.1 mph 23.0 mph N/A   Clear
8:35 AM 62.6 °F - 53.6 °F 72% 30.03 in 10.0 mi SSE 15.0 mph 25.3 mph N/A   Clear
8:55 AM 62.6 °F - 53.6 °F 72% 30.02 in 10.0 mi SSE 12.7 mph 16.1 mph N/A   Clear
9:15 AM 64.4 °F - 55.4 °F 73% 30.02 in 10.0 mi SSE 10.4 mph 23.0 mph N/A   Clear
9:35 AM 66.2 °F - 55.4 °F 68% 30.01 in 10.0 mi South 12.7 mph 17.3 mph N/A   Partly Cloudy
9:55 AM 68.0 °F - 55.4 °F 64% 30.01 in 10.0 mi SSE 20.7 mph 25.3 mph N/A   Clear
10:15 AM 69.8 °F - 55.4 °F 60% 30.00 in 10.0 mi South 15.0 mph 20.7 mph N/A   Clear
10:35 AM 71.6 °F - 55.4 °F 57% 30.00 in 10.0 mi South 17.3 mph 26.5 mph N/A   Clear
10:55 AM 73.4 °F - 57.2 °F 57% 29.99 in 10.0 mi South 13.8 mph 26.5 mph N/A   Clear
11:15 AM 73.4 °F - 57.2 °F 57% 29.98 in 10.0 mi South 21.9 mph 31.1 mph N/A   Mostly Cloudy
11:35 AM 73.4 °F - 57.2 °F 57% 29.97 in 10.0 mi South 13.8 mph 24.2 mph N/A   Mostly Cloudy
11:55 AM 73.4 °F - 55.4 °F 53% 29.96 in 10.0 mi South 20.7 mph 27.6 mph N/A   Overcast
12:15 PM 73.4 °F - 57.2 °F 57% 29.95 in 10.0 mi South 17.3 mph 27.6 mph N/A   Overcast
12:35 PM 75.2 °F - 57.2 °F 53% 29.94 in 10.0 mi SSE 20.7 mph 28.8 mph N/A   Overcast
12:55 PM 78.8 °F - 59.0 °F 51% 29.93 in 10.0 mi South 18.4 mph 23.0 mph N/A   Mostly Cloudy
1:15 PM 77.0 °F - 57.2 °F 50% 29.91 in 10.0 mi South 19.6 mph 29.9 mph N/A   Mostly Cloudy
1:35 PM 77.0 °F - 57.2 °F 50% 29.91 in 10.0 mi South 13.8 mph 24.2 mph N/A   Overcast
1:55 PM 78.8 °F - 59.0 °F 51% 29.89 in 10.0 mi South 20.7 mph 28.8 mph N/A   Overcast
2:15 PM 78.8 °F - 57.2 °F 47% 29.89 in 10.0 mi South 18.4 mph 26.5 mph N/A   Overcast
2:35 PM 80.6 °F 80.8 °F 57.2 °F 45% 29.89 in 10.0 mi South 20.7 mph 27.6 mph N/A   Mostly Cloudy
2:55 PM 78.8 °F - 57.2 °F 47% 29.88 in 10.0 mi South 25.3 mph 29.9 mph N/A   Overcast
3:15 PM 78.8 °F - 57.2 °F 47% 29.87 in 10.0 mi South 21.9 mph 28.8 mph N/A   Overcast
3:35 PM 80.6 °F 80.8 °F 57.2 °F 45% 29.86 in 10.0 mi South 19.6 mph 25.3 mph N/A   Mostly Cloudy
3:55 PM 80.6 °F 80.8 °F 57.2 °F 45% 29.85 in 10.0 mi SSW 15.0 mph 29.9 mph N/A   Mostly Cloudy
4:35 PM 80.6 °F 80.8 °F 57.2 °F 45% 29.84 in 10.0 mi South 15.0 mph 20.7 mph N/A   Mostly Cloudy
4:55 PM 82.4 °F 82.0 °F 57.2 °F 42% 29.83 in 10.0 mi South 20.7 mph 27.6 mph N/A   Overcast
5:15 PM 80.6 °F 80.5 °F 55.4 °F 42% 29.83 in 10.0 mi SSW 20.7 mph 32.2 mph N/A   Mostly Cloudy
5:35 PM 78.8 °F - 55.4 °F 44% 29.82 in 10.0 mi South 13.8 mph - N/A   Overcast
5:55 PM 80.6 °F 80.8 °F 57.2 °F 45% 29.82 in 10.0 mi SSE 15.0 mph 23.0 mph N/A   Scattered Clouds
6:15 PM 78.8 °F - 57.2 °F 47% 29.81 in 10.0 mi SSE 10.4 mph - N/A   Mostly Cloudy
6:35 PM 78.8 °F - 57.2 °F 47% 29.80 in 10.0 mi SSE 13.8 mph 17.3 mph N/A   Overcast
6:55 PM 78.8 °F - 55.4 °F 44% 29.80 in 10.0 mi South 15.0 mph 26.5 mph N/A   Scattered Clouds
7:15 PM 78.8 °F - 55.4 °F 44% 29.80 in 10.0 mi South 12.7 mph 17.3 mph N/A   Scattered Clouds
7:35 PM 78.8 °F - 55.4 °F 44% 29.79 in 10.0 mi SSE 15.0 mph - N/A   Mostly Cloudy
7:55 PM 75.2 °F - 57.2 °F 53% 29.79 in 10.0 mi SSE 15.0 mph 18.4 mph N/A   Overcast
8:15 PM 75.2 °F - 57.2 °F 53% 29.79 in 10.0 mi SE 10.4 mph - N/A   Overcast
8:35 PM 73.4 °F - 57.2 °F 57% 29.79 in 10.0 mi SE 10.4 mph - N/A   Mostly Cloudy
8:55 PM 71.6 °F - 57.2 °F 60% 29.79 in 10.0 mi SSE 11.5 mph 19.6 mph N/A   Scattered Clouds
9:15 PM 73.4 °F - 55.4 °F 53% 29.79 in 10.0 mi South 13.8 mph 27.6 mph N/A   Mostly Cloudy
9:35 PM 73.4 °F - 53.6 °F 50% 29.80 in 10.0 mi South 21.9 mph 32.2 mph N/A   Mostly Cloudy
9:55 PM 73.4 °F - 53.6 °F 50% 29.80 in 10.0 mi SSE 19.6 mph 26.5 mph N/A   Scattered Clouds
10:15 PM 73.4 °F - 53.6 °F 50% 29.79 in 10.0 mi South 23.0 mph 29.9 mph N/A   Partly Cloudy
10:35 PM 71.6 °F - 53.6 °F 53% 29.80 in 10.0 mi South 17.3 mph 27.6 mph N/A   Clear
10:55 PM 71.6 °F - 53.6 °F 53% 29.79 in 10.0 mi South 18.4 mph 33.4 mph N/A   Partly Cloudy
11:35 PM 71.6 °F - 51.8 °F 50% 29.79 in 10.0 mi South 17.3 mph 25.3 mph N/A   Clear
11:55 PM 69.8 °F - 51.8 °F 53% 29.78 in 10.0 mi South 19.6 mph 24.2 mph N/A   Clear